| time (UTC) | temp C | wind direction | speed KPH | gust KPH | rain 1hr cm | rain 24hr cm | rain mn cm | humidity % | barometer mb |
| 20260507151441 | 15 | 17 | 4.8 | 8.0 | 0.00 | 0.00 | 0.00 | 49 | 1039.7 |
| 20260507150448 | 15 | 338 | 4.8 | 8.0 | 0.00 | 0.00 | 0.00 | 52 | 1039.7 |
| 20260507145446 | 14 | 249 | 6.4 | 8.0 | 0.00 | 0.00 | 0.00 | 52 | 1039.7 |
| 20260507144434 | 14 | 30 | 1.6 | 4.8 | 0.00 | 0.00 | 0.00 | 51 | 1039.7 |
| 20260507143432 | 13 | 305 | 1.6 | 4.8 | 0.00 | 0.00 | 0.00 | 53 | 1039.7 |
| 20260507142430 | 13 | 210 | 3.2 | 6.4 | 0.00 | 0.00 | 0.00 | 53 | 1039.7 |
| 20260507141448 | 13 | 313 | 1.6 | 6.4 | 0.00 | 0.00 | 0.00 | 52 | 1040.1 |
| 20260507140426 | 12 | 313 | 3.2 | 8.0 | 0.00 | 0.00 | 0.00 | 51 | 1040.1 |
| 20260507135424 | 12 | 25 | 3.2 | 8.0 | 0.00 | 0.00 | 0.00 | 50 | 1039.9 |
| 20260507134444 | 12 | 321 | 3.2 | 6.4 | 0.00 | 0.00 | 0.00 | 26 | 1040.1 |
| 20260507133420 | 11 | 63 | 6.4 | 12.9 | 0.00 | 0.00 | 0.00 | 17 | 1039.7 |
| 20260507132458 | 10 | 332 | 1.6 | 6.4 | 0.00 | 0.00 | 0.00 | 4 | 1039.9 |
| 20260507131508 | 9 | 6 | 3.2 | 4.8 | 0.00 | 0.00 | 0.00 | 1 | 1040.1 |
| 20260507130445 | 7 | 25 | 1.6 | 4.8 | 0.00 | 0.00 | 0.00 | 1 | 1039.7 |
| 20260507125454 | 6 | 234 | 3.2 | 6.4 | 0.00 | 0.00 | 0.00 | 1 | 1039.8 |
| 20260507124530 | 6 | 229 | 0.0 | 4.8 | 0.00 | 0.00 | 0.00 | 1 | 1040.1 |
| 20260507123439 | 5 | 225 | 1.6 | 1.6 | 0.00 | 0.00 | 0.00 | 1 | 1040.1 |
| 20260507122437 | 3 | 225 | 0.0 | 1.6 | 0.00 | 0.00 | 0.00 | 1 | 1040.1 |
| 20260507121435 | 3 | 0.0 | 0.0 | 0.00 | 0.00 | 0.00 | 1 | 1040.1 | |
| 20260507120453 | 3 | 0.0 | 0.0 | 0.00 | 0.00 | 0.00 | 1 | 1040.1 | |
| 20260507115451 | 2 | 0.0 | 0.0 | 0.00 | 0.00 | 0.00 | 1 | 1040.1 | |
| 20260507114429 | 2 | 0.0 | 0.0 | 0.00 | 0.00 | 0.00 | 1 | 1040.1 | |
| 20260507113527 | 2 | 0.0 | 0.0 | 0.00 | 0.00 | 0.00 | 1 | 1040.1 | |
| 20260507112425 | 1 | 0.0 | 0.0 | 0.00 | 0.00 | 0.00 | 1 | 1040.1 | |
| 20260507111423 | 1 | 0.0 | 0.0 | 0.00 | 0.03 | 0.00 | 1 | 1039.7 | |
| 20260507110521 | 1 | 0.0 | 0.0 | 0.00 | 0.03 | 0.00 | 1 | 1039.7 | |
| 20260507105519 | 1 | 0.0 | 0.0 | 0.00 | 0.03 | 0.00 | 1 | 1039.4 | |
| 20260507104518 | 1 | 0.0 | 0.0 | 0.00 | 0.03 | 0.00 | 1 | 1039.4 | |
| 20260507103545 | 1 | 0.0 | 0.0 | 0.00 | 0.03 | 0.00 | 1 | 1039.4 | |
| 20260507102454 | 1 | 0.0 | 0.0 | 0.00 | 0.03 | 0.00 | 1 | 1039.4 | |
| 20260507101531 | 1 | 0.0 | 0.0 | 0.00 | 0.03 | 0.00 | 1 | 1039.4 | |
| 20260507100439 | 2 | 0.0 | 0.0 | 0.00 | 0.03 | 0.00 | 1 | 1039.4 | |
| 20260507095437 | 2 | 0.0 | 0.0 | 0.00 | 0.03 | 0.00 | 1 | 1039.4 | |
| 20260507094505 | 2 | 0.0 | 0.0 | 0.00 | 0.03 | 0.00 | 1 | 1039.4 | |
| 20260507093533 | 2 | 0.0 | 0.0 | 0.00 | 0.03 | 0.00 | 1 | 1039.4 | |
| 20260507092532 | 2 | 0.0 | 0.0 | 0.00 | 0.03 | 0.00 | 1 | 1039.4 | |
| 20260507091429 | 2 | 0.0 | 0.0 | 0.00 | 0.03 | 0.00 | 1 | 1039.0 | |
| 20260507090507 | 2 | 0.0 | 0.0 | 0.00 | 0.03 | 0.00 | 1 | 1039.0 | |
| 20260507085525 | 2 | 0.0 | 0.0 | 0.00 | 0.03 | 0.00 | 1 | 1039.0 | |
| 20260507084523 | 2 | 0.0 | 0.0 | 0.00 | 0.03 | 0.00 | 1 | 1039.0 | |
| 20260507083531 | 2 | 0.0 | 0.0 | 0.00 | 0.03 | 0.00 | 1 | 1039.0 | |
| 20260507082521 | 2 | 0.0 | 0.0 | 0.00 | 0.03 | 0.00 | 1 | 1039.0 | |
| 20260507081518 | 2 | 0.0 | 0.0 | 0.00 | 0.03 | 0.00 | 1 | 1038.8 | |
| 20260507080516 | 2 | 0.0 | 0.0 | 0.00 | 0.03 | 0.00 | 1 | 1038.7 | |
| 20260507075514 | 2 | 0.0 | 0.0 | 0.00 | 0.05 | 0.00 | 1 | 1038.7 | |
| 20260507074512 | 2 | 0.0 | 0.0 | 0.00 | 0.08 | 0.00 | 1 | 1038.7 | |
| 20260507073511 | 3 | 0.0 | 0.0 | 0.00 | 0.13 | 0.00 | 1 | 1038.7 | |
| 20260507072438 | 3 | 0.0 | 0.0 | 0.00 | 0.15 | 0.00 | 1 | 1038.7 | |
| 20260507071436 | 3 | 0.0 | 0.0 | 0.00 | 0.18 | 0.00 | 1 | 1038.9 | |
| 20260507070534 | 3 | 0.0 | 0.0 | 0.00 | 0.25 | 0.00 | 1 | 1038.7 | |
| 20260507065532 | 3 | 0.0 | 0.0 | 0.00 | 0.33 | 0.00 | 1 | 1039.0 | |
| 20260507064530 | 3 | 0.0 | 0.0 | 0.00 | 0.36 | 0.00 | 1 | 1039.0 | |
| 20260507063530 | 3 | 0.0 | 0.0 | 0.00 | 0.36 | 0.00 | 1 | 1039.0 | |
| 20260507062536 | 3 | 0.0 | 0.0 | 0.00 | 0.38 | 0.00 | 1 | 1039.0 | |
| 20260507061534 | 3 | 0.0 | 0.0 | 0.00 | 0.38 | 0.00 | 1 | 1039.0 | |
| 20260507060453 | 3 | 0.0 | 0.0 | 0.00 | 0.46 | 0.00 | 1 | 1039.0 | |
| 20260507055530 | 4 | 0.0 | 0.0 | 0.00 | 0.53 | 0.00 | 1 | 1039.0 | |
| 20260507054447 | 4 | 0.0 | 0.0 | 0.00 | 0.56 | 0.00 | 1 | 1039.0 | |
| 20260507053445 | 4 | 0.0 | 0.0 | 0.00 | 0.61 | 0.00 | 1 | 1039.3 | |
| 20260507052514 | 4 | 0.0 | 0.0 | 0.00 | 0.66 | 0.00 | 1 | 1039.0 | |
| 20260507051511 | 4 | 0.0 | 0.0 | 0.00 | 0.74 | 0.00 | 1 | 1039.0 | |
| 20260507050459 | 5 | 0.0 | 0.0 | 0.00 | 0.97 | 0.00 | 1 | 1039.4 | |
| 20260507045547 | 5 | 0.0 | 0.0 | 0.00 | 1.04 | 0.00 | 1 | 1039.4 | |
| 20260507044505 | 5 | 0.0 | 0.0 | 0.00 | 1.19 | 0.00 | 1 | 1039.4 | |
| 20260507043433 | 5 | 0.0 | 0.0 | 0.00 | 1.22 | 0.00 | 1 | 1039.4 | |
| 20260507042530 | 5 | 0.0 | 0.0 | 0.00 | 1.32 | 0.00 | 1 | 1039.0 | |
| 20260507041528 | 5 | 0.0 | 0.0 | 0.00 | 1.42 | 0.00 | 1 | 1039.4 | |
| 20260507040516 | 5 | 0.0 | 0.0 | 0.00 | 1.63 | 0.00 | 1 | 1039.0 | |
| 20260507035454 | 6 | 0.0 | 0.0 | 0.00 | 1.68 | 1.68 | 1 | 1039.0 | |
| 20260507034522 | 6 | 0.0 | 0.0 | 0.00 | 1.73 | 1.68 | 1 | 1039.0 | |
| 20260507033450 | 6 | 0.0 | 0.0 | 0.00 | 1.73 | 1.68 | 1 | 1039.4 | |
| 20260507032418 | 6 | 0.0 | 0.0 | 0.00 | 1.73 | 1.68 | 1 | 1039.4 | |
| 20260507031516 | 6 | 0.0 | 0.0 | 0.00 | 1.73 | 1.68 | 1 | 1039.4 | |
| 20260507030514 | 7 | 0.0 | 0.0 | 0.00 | 1.73 | 1.68 | 1 | 1039.4 | |
| 20260507025442 | 7 | 0.0 | 0.0 | 0.00 | 1.73 | 1.68 | 1 | 1039.4 | |
| 20260507024541 | 7 | 0.0 | 0.0 | 0.00 | 1.78 | 1.68 | 1 | 1039.4 | |
| 20260507023439 | 7 | 0.0 | 0.0 | 0.00 | 1.80 | 1.68 | 1 | 1039.4 | |
| 20260507022456 | 8 | 0.0 | 0.0 | 0.00 | 1.85 | 1.68 | 1 | 1039.0 | |
| 20260507021454 | 8 | 0.0 | 0.0 | 0.00 | 1.88 | 1.68 | 1 | 1039.2 | |
| 20260507020533 | 8 | 0.0 | 0.0 | 0.00 | 1.93 | 1.68 | 1 | 1039.0 | |
| 20260507015510 | 8 | 0.0 | 0.0 | 0.00 | 2.01 | 1.68 | 1 | 1039.0 | |
| 20260507014458 | 8 | 0.0 | 0.0 | 0.00 | 2.06 | 1.68 | 1 | 1038.7 | |
| 20260507013456 | 9 | 0.0 | 0.0 | 0.00 | 2.08 | 1.68 | 8 | 1038.7 | |
| 20260507012554 | 9 | 0.0 | 0.0 | 0.00 | 2.08 | 1.68 | 15 | 1038.7 | |
| 20260507011452 | 10 | 0.0 | 0.0 | 0.00 | 2.08 | 1.68 | 21 | 1038.4 | |
| 20260507010450 | 10 | 0.0 | 0.0 | 0.00 | 2.18 | 1.68 | 30 | 1038.4 | |
| 20260507005519 | 11 | 0.0 | 0.0 | 0.00 | 2.29 | 1.68 | 37 | 1038.4 | |
| 20260507004447 | 11 | 0.0 | 0.0 | 0.00 | 2.39 | 1.68 | 41 | 1038.4 | |
| 20260507003515 | 11 | 0.0 | 0.0 | 0.00 | 2.39 | 1.68 | 42 | 1038.4 | |
| 20260507002443 | 12 | 0.0 | 0.0 | 0.00 | 2.39 | 1.68 | 46 | 1038.4 | |
| 20260507001412 | 12 | 0.0 | 0.0 | 0.00 | 2.41 | 1.68 | 49 | 1038.0 | |
| 20260507000300 | 12 | 0.0 | 0.0 | 0.00 | 2.44 | 1.68 | 49 | 1038.0 | |
| 20260506235238 | 13 | 0.0 | 0.0 | 0.00 | 2.44 | 1.68 | 50 | 1037.7 | |
| 20260506234236 | 13 | 0.0 | 0.0 | 0.00 | 2.44 | 1.68 | 51 | 1037.7 | |
| 20260506233234 | 13 | 270 | 0.0 | 4.8 | 0.00 | 2.49 | 1.68 | 51 | 1037.7 |
| 20260506232233 | 14 | 19 | 3.2 | 6.4 | 0.00 | 2.51 | 1.68 | 52 | 1037.7 |
| 20260506231230 | 14 | 2 | 3.2 | 8.0 | 0.00 | 2.51 | 1.68 | 52 | 1037.7 |
| 20260506230229 | 15 | 346 | 3.2 | 6.4 | 0.00 | 2.51 | 1.68 | 52 | 1037.7 |
| 20260506225256 | 15 | 58 | 4.8 | 8.0 | 0.00 | 2.51 | 1.68 | 52 | 1037.7 |
| 20260506224224 | 15 | 28 | 1.6 | 4.8 | 0.00 | 2.51 | 1.68 | 52 | 1037.7 |
| 20260506223222 | 15 | 60 | 1.6 | 4.8 | 0.00 | 2.51 | 1.68 | 52 | 1038.0 |
| 20260506222250 | 15 | 0.0 | 1.6 | 0.00 | 2.51 | 1.68 | 52 | 1038.0 | |
| 20260506221249 | 15 | 49 | 3.2 | 6.4 | 0.00 | 2.51 | 1.68 | 52 | 1038.0 |
| 20260506220246 | 15 | 91 | 1.6 | 4.8 | 0.00 | 2.51 | 1.68 | 51 | 1038.0 |
| 20260506215306 | 15 | 286 | 1.6 | 4.8 | 0.00 | 2.51 | 1.68 | 52 | 1038.0 |
| 20260506214302 | 15 | 23 | 1.6 | 4.8 | 0.00 | 2.54 | 1.68 | 52 | 1038.0 |
| 20260506213241 | 15 | 45 | 1.6 | 4.8 | 0.00 | 2.54 | 1.68 | 52 | 1038.0 |
| 20260506212238 | 15 | 0 | 0.0 | 1.6 | 0.00 | 2.57 | 1.68 | 52 | 1037.9 |
| 20260506211236 | 16 | 338 | 1.6 | 6.4 | 0.00 | 2.59 | 1.68 | 52 | 1037.7 |
| 20260506210234 | 16 | 240 | 1.6 | 4.8 | 0.00 | 2.59 | 1.68 | 52 | 1037.7 |
| 20260506205305 | 16 | 325 | 1.6 | 4.8 | 0.00 | 2.59 | 1.68 | 52 | 1037.5 |
| 20260506204241 | 16 | 33 | 1.6 | 4.8 | 0.00 | 2.62 | 1.68 | 52 | 1037.7 |
| 20260506203309 | 16 | 328 | 1.6 | 6.4 | 0.00 | 2.62 | 1.68 | 52 | 1037.7 |
| 20260506202226 | 15 | 307 | 0.0 | 4.8 | 0.00 | 2.64 | 1.68 | 52 | 1037.7 |
| 20260506201234 | 15 | 25 | 1.6 | 8.0 | 0.00 | 2.67 | 1.68 | 52 | 1037.7 |
| 20260506200253 | 15 | 2 | 1.6 | 4.8 | 0.00 | 2.69 | 1.68 | 52 | 1037.7 |
| 20260506195251 | 16 | 344 | 1.6 | 6.4 | 0.00 | 2.72 | 1.68 | 52 | 1037.7 |
| 20260506194220 | 16 | 25 | 3.2 | 6.4 | 0.00 | 2.79 | 1.68 | 52 | 1037.3 |
| 20260506193217 | 17 | 82 | 4.8 | 8.0 | 0.00 | 2.97 | 1.68 | 49 | 1037.3 |
| 20260506192245 | 17 | 29 | 4.8 | 11.3 | 0.00 | 3.07 | 1.68 | 50 | 1037.3 |
| 20260506191416 | 17 | 352 | 3.2 | 6.4 | 0.00 | 3.12 | 1.68 | 51 | 1037.3 |
| 20260506190242 | 17 | 7 | 6.4 | 11.3 | 0.00 | 3.12 | 1.68 | 51 | 1037.0 |
| 20260506185240 | 17 | 14 | 3.2 | 8.0 | 0.00 | 3.12 | 1.68 | 51 | 1037.1 |
| 20260506184239 | 18 | 55 | 3.2 | 6.4 | 0.00 | 3.12 | 1.68 | 51 | 1037.3 |
| 20260506183236 | 18 | 336 | 4.8 | 11.3 | 0.00 | 3.12 | 1.68 | 50 | 1037.0 |
| 20260506182234 | 18 | 196 | 1.6 | 4.8 | 0.00 | 3.12 | 1.68 | 51 | 1037.0 |
| 20260506181232 | 18 | 59 | 4.8 | 11.3 | 0.00 | 3.12 | 1.68 | 51 | 1037.3 |
| 20260506180231 | 17 | 118 | 3.2 | 6.4 | 0.00 | 3.12 | 1.68 | 50 | 1037.0 |
| 20260506175229 | 17 | 268 | 3.2 | 6.4 | 0.00 | 3.12 | 1.68 | 51 | 1037.3 |
| 20260506174227 | 17 | 330 | 1.6 | 8.0 | 0.00 | 3.12 | 1.68 | 51 | 1037.7 |
| 20260506173314 | 17 | 360 | 6.4 | 12.9 | 0.00 | 3.12 | 1.68 | 51 | 1037.7 |
| 20260506172222 | 17 | 11 | 3.2 | 6.4 | 0.00 | 3.12 | 1.68 | 47 | 1037.7 |
| 20260506171250 | 17 | 20 | 1.6 | 6.4 | 0.00 | 3.12 | 1.68 | 50 | 1037.7 |
| 20260506170249 | 16 | 25 | 3.2 | 6.4 | 0.00 | 3.12 | 1.68 | 47 | 1037.7 |
| 20260506165246 | 16 | 72 | 1.6 | 4.8 | 0.00 | 3.12 | 1.68 | 48 | 1037.8 |
| 20260506164245 | 16 | 158 | 1.6 | 4.8 | 0.00 | 3.12 | 1.68 | 45 | 1037.7 |
| 20260506163242 | 16 | 22 | 6.4 | 12.9 | 0.00 | 3.12 | 1.68 | 43 | 1037.7 |
| 20260506162240 | 16 | 88 | 4.8 | 6.4 | 0.00 | 3.12 | 1.68 | 43 | 1037.7 |
| 20260506161238 | 16 | 45 | 1.6 | 4.8 | 0.00 | 3.12 | 1.68 | 39 | 1037.7 |
| 20260506160235 | 15 | 111 | 6.4 | 16.1 | 0.00 | 3.12 | 1.68 | 46 | 1037.7 |
| 20260506155233 | 15 | 39 | 1.6 | 4.8 | 0.00 | 3.12 | 1.68 | 36 | 1037.3 |
| 20260506154231 | 15 | 341 | 3.2 | 6.4 | 0.00 | 3.12 | 1.68 | 32 | 1037.3 |
| 20260506153311 | 15 | 186 | 1.6 | 6.4 | 0.00 | 3.12 | 1.68 | 21 | 1037.7 |
| 20260506152228 | 14 | 28 | 6.4 | 11.3 | 0.00 | 3.12 | 1.68 | 30 | 1037.8 |